FW2402 Weather Reports


time (UTC)temp
F
wind
direction
speed
knots
gust
knots
rain 1hr
in
rain 24hr
in
rain mn
in
humidity
%
barometer
mb
20260509173045 94 259 2.6 9.6 0.00 0.00 0.00 47 1011.8
20260509172519 94 192 2.6 9.6 0.00 0.00 0.00 46 1011.8
20260509172025 95 229 1.7 10.4 0.00 0.00 0.00 46 1011.7
20260509171545 93 236 3.5 10.4 0.00 0.00 0.00 49 1011.8
20260509171017 93 294 1.7 9.6 0.00 0.00 0.00 48 1011.9
20260509170517 92 245 2.6 10.4 0.00 0.00 0.00 49 1012.0
20260509170041 91 224 5.2 10.4 0.00 0.00 0.00 50 1011.9
20260509165518 92 220 4.3 10.4 0.00 0.00 0.00 51 1012.1
20260509165017 91 242 0.9 9.6 0.00 0.00 0.00 51 1012.2
20260509164537 92 236 2.6 9.6 0.00 0.00 0.00 49 1012.1
20260509164018 93 236 1.7 9.6 0.00 0.00 0.00 49 1012.2
20260509163517 91 171 1.7 9.6 0.00 0.00 0.00 51 1012.4
20260509163045 90 268 4.3 13.0 0.00 0.00 0.00 52 1012.5
20260509162522 90 238 5.2 13.0 0.00 0.00 0.00 51 1012.5
20260509162018 90 207 1.7 11.3 0.00 0.00 0.00 52 1012.4
20260509161542 88 265 5.2 11.3 0.00 0.00 0.00 55 1012.5
20260509161020 90 211 3.5 9.6 0.00 0.00 0.00 52 1012.5
20260509160518 91 136 2.6 9.6 0.00 0.00 0.00 51 1012.4
20260509160042 90 0 0.9 9.6 0.00 0.00 0.00 52 1012.5
20260509155517 90 227 1.7 8.7 0.00 0.00 0.00 52 1012.5
20260509155017 90 243 0.9 8.7 0.00 0.00 0.00 54 1012.5
20260509154542 89 278 5.2 8.7 0.00 0.00 0.00 53 1012.5
20260509154017 90 0 1.7 7.8 0.00 0.00 0.00 53 1012.5
20260509153518 88 242 2.6 8.7 0.00 0.00 0.00 55 1012.5
20260509153048 88 233 3.5 9.6 0.00 0.00 0.00 57 1012.7
20260509152518 87 250 4.3 9.6 0.00 0.00 0.00 57 1012.8
20260509152018 87 290 6.1 9.6 0.00 0.00 0.00 57 1012.7
20260509151541 88 286 0.9 7.8 0.00 0.00 0.00 57 1013.0
20260509151021 87 188 1.7 7.8 0.00 0.00 0.00 59 1013.0
20260509150521 86 263 2.6 7.0 0.00 0.00 0.00 61 1013.1
20260509150042 86 112 1.7 7.0 0.00 0.00 0.00 61 1013.1
20260509145520 85 248 3.5 7.0 0.00 0.00 0.00 62 1013.2
20260509145018 86 242 0.9 6.1 0.00 0.00 0.00 65 1013.2
20260509144534 84 269 0.9 6.1 0.00 0.00 0.00 67 1013.3
20260509144018 83 285 2.6 6.1 0.00 0.00 0.00 69 1013.3
20260509143518 83 277 0.0 6.1 0.00 0.00 0.00 70 1013.3
20260509143051 82 132 1.7 7.0 0.00 0.00 0.00 72 1013.3
20260509142518 83 246 2.6 7.0 0.00 0.00 0.00 70 1013.2
20260509142018 84 259 0.0 2.6 0.00 0.00 0.00 70 1013.1
20260509141541 84 349 0.9 4.3 0.00 0.00 0.00 72 1013.1
20260509141019 82 227 0.9 4.3 0.00 0.00 0.00 74 1013.0
20260509140520 82 181 0.9 3.5 0.00 0.00 0.00 75 1013.0
20260509140045 81 265 0.9 2.6 0.00 0.00 0.00 76 1013.0
20260509135520 81 0 0.9 5.2 0.00 0.00 0.00 75 1013.1
20260509135020 81 207 0.9 6.1 0.00 0.00 0.00 76 1013.1
20260509134537 81 89 2.6 6.1 0.00 0.00 0.00 75 1013.1
20260509134019 81 134 0.9 7.0 0.00 0.00 0.00 77 1012.9
20260509133519 80 153 2.6 7.0 0.00 0.00 0.00 78 1012.9
20260509133040 79 139 3.5 7.0 0.00 0.00 0.00 79 1012.9
20260509132520 79 141 2.6 6.1 0.00 0.00 0.00 79 1012.9
20260509132018 79 138 2.6 6.1 0.00 0.00 0.00 80 1012.9
20260509131537 78 119 1.7 6.1 0.00 0.00 0.00 82 1013.0
20260509131018 77 156 0.9 5.2 0.00 0.00 0.00 83 1012.9
20260509130520 78 139 1.7 5.2 0.00 0.00 0.00 82 1013.1
20260509130037 77 85 2.6 6.1 0.00 0.00 0.00 84 1013.1
20260509125523 77 150 2.6 6.1 0.00 0.00 0.00 85 1013.1
20260509125019 76 123 2.6 5.2 0.00 0.00 0.00 85 1013.1
20260509124532 76 148 1.7 5.2 0.00 0.00 0.00 86 1013.0
20260509124019 75 103 1.7 6.1 0.00 0.00 0.00 88 1013.0
20260509123516 75 113 2.6 7.0 0.00 0.00 0.00 90 1013.0
20260509123035 74 106 2.6 7.0 0.00 0.00 0.00 92 1012.9
20260509122515 74 113 3.5 6.1 0.00 0.00 0.00 92 1012.9
20260509122019 73 117 1.7 5.2 0.00 0.00 0.00 94 1012.9
20260509121541 73 113 1.7 5.2 0.00 0.00 0.00 95 1013.0
20260509121018 72 120 1.7 3.5 0.00 0.00 0.00 95 1012.9
20260509120519 72 82 1.7 3.5 0.00 0.00 0.00 96 1012.8
20260509120038 72 107 0.9 3.5 0.00 0.00 0.00 96 1012.9
20260509115517 71 92 1.7 3.5 0.00 0.00 0.00 96 1013.0
20260509115018 72 0 0.9 2.6 0.00 0.00 0.00 96 1012.9
20260509114541 71 113 1.7 2.6 0.00 0.00 0.00 96 1012.7
20260509114016 71 115 0.0 1.7 0.00 0.00 0.00 96 1012.8
20260509113520 71 0 0.0 0.0 0.00 0.00 0.00 96 1012.7
20260509113041 71 0 0.0 0.0 0.00 0.00 0.00 96 1012.7
20260509112519 71 0 0.0 0.0 0.00 0.00 0.00 96 1012.6
20260509112020 71 0 0.0 0.0 0.00 0.00 0.00 96 1012.5
20260509111540 71 0 0.0 0.0 0.00 0.00 0.00 96 1012.5
20260509111020 70 0 0.0 1.7 0.00 0.00 0.00 96 1012.5
20260509110518 70 0 0.0 2.6 0.00 0.00 0.00 96 1012.5
20260509110038 70 263 0.9 2.6 0.00 0.00 0.00 96 1012.4
20260509105517 70 269 0.0 1.7 0.00 0.00 0.00 96 1012.3
20260509105018 70 248 0.0 1.7 0.00 0.00 0.00 96 1012.2
20260509104539 70 0 0.0 1.7 0.00 0.00 0.00 96 1012.1
20260509104016 70 0 0.0 1.7 0.00 0.00 0.00 96 1012.1
20260509103517 70 0 0.0 2.6 0.00 0.00 0.00 96 1012.0
20260509103041 70 0 0.0 3.5 0.00 0.00 0.00 96 1012.0
20260509102518 70 0 0.0 3.5 0.00 0.00 0.00 96 1012.0
20260509102017 70 69 0.0 1.7 0.00 0.00 0.00 96 1012.0
20260509101536 70 0 0.0 2.6 0.00 0.00 0.00 96 1011.9
20260509101017 70 0 0.0 3.5 0.00 0.00 0.00 96 1011.8
20260509100517 69 0 0.9 3.5 0.00 0.00 0.00 96 1011.7
20260509100049 69 23 0.9 2.6 0.00 0.00 0.00 96 1011.8
20260509095521 69 0 0.9 2.6 0.00 0.00 0.00 96 1011.7
20260509095017 66 0 0.0 0.0 0.00 0.00 0.00 96 1011.8
20260509094542 66 0 0.0 0.0 0.00 0.00 0.00 95 1011.8
20260509094017 66 0 0.0 0.0 0.00 0.00 0.00 95 1011.7
20260509093517 66 0 0.0 0.0 0.00 0.00 0.00 95 1011.9
20260509093042 66 0 0.0 0.0 0.00 0.00 0.00 95 1011.7
20260509092517 66 0 0.0 0.0 0.00 0.00 0.00 95 1011.9
20260509092021 67 0 0.0 0.0 0.00 0.00 0.00 95 1011.9
20260509091538 67 0 0.0 0.0 0.00 0.00 0.00 95 1011.8
20260509091017 67 0 0.0 0.0 0.00 0.00 0.00 95 1011.9
20260509090517 67 0 0.0 0.0 0.00 0.00 0.00 95 1011.9
20260509090042 67 0 0.0 0.0 0.00 0.00 0.00 95 1011.9
20260509085518 67 0 0.0 0.0 0.00 0.00 0.00 95 1011.9
20260509085017 67 0 0.0 0.0 0.00 0.00 0.00 95 1012.1
20260509084541 67 0 0.0 0.0 0.00 0.00 0.00 95 1012.1
20260509084021 66 0 0.0 0.0 0.00 0.00 0.00 95 1012.1
20260509083520 67 0 0.0 0.0 0.00 0.00 0.00 95 1012.2
20260509083043 67 0 0.0 0.0 0.00 0.00 0.00 95 1012.2
20260509082516 68 0 0.0 0.0 0.00 0.00 0.00 95 1012.1
20260509082016 67 0 0.0 0.0 0.00 0.00 0.00 94 1012.0
20260509081539 68 0 0.0 0.0 0.00 0.00 0.00 95 1012.1
20260509081017 68 0 0.0 0.0 0.00 0.00 0.00 94 1012.0
20260509080518 69 0 0.0 0.0 0.00 0.00 0.00 94 1012.1
20260509080041 69 0 0.0 0.0 0.00 0.00 0.00 95 1012.1
20260509075517 69 0 0.0 0.0 0.00 0.00 0.00 95 1012.1
20260509075017 69 0 0.0 0.0 0.00 0.00 0.00 95 1012.3
20260509074536 69 0 0.0 0.0 0.00 0.00 0.00 95 1012.2
20260509074017 69 0 0.0 0.0 0.00 0.00 0.00 95 1012.3
20260509073521 69 0 0.0 0.0 0.00 0.00 0.00 94 1012.3
20260509073043 69 0 0.0 0.0 0.00 0.00 0.00 95 1012.4
20260509072517 69 0 0.0 0.0 0.00 0.00 0.00 94 1012.4
20260509072020 69 0 0.0 0.0 0.00 0.00 0.00 94 1012.4
20260509071533 68 0 0.0 0.0 0.00 0.00 0.00 94 1012.6
20260509071017 69 0 0.0 0.0 0.00 0.00 0.00 94 1012.6
20260509070517 69 0 0.0 0.0 0.00 0.00 0.00 94 1012.6
20260509070044 70 0 0.0 0.0 0.00 0.00 0.00 94 1012.7
20260509065516 70 0 0.0 0.0 0.00 0.00 0.00 94 1012.7
20260509065016 69 0 0.0 0.0 0.00 0.00 0.00 95 1012.7
20260509064541 69 0 0.0 0.0 0.00 0.00 0.00 95 1012.8
20260509064017 68 0 0.0 0.0 0.00 0.00 0.00 94 1012.9
20260509063523 69 0 0.0 0.0 0.00 0.00 0.00 94 1012.9
20260509063038 69 0 0.0 0.0 0.00 0.00 0.00 94 1012.9
20260509062518 69 0 0.0 0.0 0.00 0.00 0.00 94 1013.0
20260509062018 68 0 0.0 0.0 0.00 0.00 0.00 94 1013.1
20260509061538 69 0 0.0 0.0 0.00 0.00 0.00 94 1013.0
20260509061019 70 0 0.0 0.0 0.00 0.00 0.00 94 1013.1
20260509060516 69 0 0.0 0.0 0.00 0.00 0.00 94 1013.1
20260509060039 70 0 0.0 0.0 0.00 0.00 0.00 94 1013.0
20260509055520 70 0 0.0 0.0 0.00 0.00 0.00 94 1013.0
20260509055020 70 0 0.0 0.0 0.00 0.00 0.00 94 1013.1
20260509054558 69 0 0.0 0.0 0.00 0.00 0.00 94 1013.1
20260509054018 69 0 0.0 0.0 0.00 0.00 0.00 93 1013.3
20260509053517 69 0 0.0 0.0 0.00 0.00 0.00 92 1013.4
20260509053041 71 0 0.0 0.0 0.00 0.00 0.00 93 1013.5
20260509052519 71 0 0.0 0.0 0.00 0.00 0.00 93 1013.4
20260509052019 70 0 0.0 0.0 0.00 0.00 0.00 93 1013.4
20260509051539 70 0 0.0 0.0 0.00 0.00 0.00 92 1013.5
20260509051016 71 0 0.0 0.0 0.00 0.00 0.00 92 1013.6
20260509050517 71 0 0.0 0.0 0.00 0.00 0.00 93 1013.7
20260509050051 71 0 0.0 0.0 0.00 0.00 0.00 92 1013.8
20260509045516 71 0 0.0 0.0 0.00 0.00 0.00 91 1013.8
20260509045016 72 0 0.0 0.0 0.00 0.00 0.00 92 1013.8
20260509044537 72 0 0.0 0.0 0.00 0.00 0.00 92 1013.9
20260509044017 71 0 0.0 0.0 0.00 0.00 0.00 91 1014.0
20260509043522 71 0 0.0 0.0 0.00 0.00 0.00 91 1014.0
20260509043037 72 0 0.0 0.0 0.00 0.00 0.00 91 1014.0
20260509042520 72 0 0.0 0.0 0.00 0.00 0.00 91 1014.0
20260509042022 72 0 0.0 0.0 0.00 0.00 0.00 91 1014.0
20260509041532 72 0 0.0 0.0 0.00 0.00 0.00 90 1014.0
20260509041016 72 0 0.0 0.0 0.00 0.00 0.00 90 1013.9
20260509040519 72 0 0.0 0.0 0.00 0.00 0.00 90 1014.0
20260509040045 73 0 0.0 0.0 0.00 0.00 0.00 90 1014.1
20260509035522 73 0 0.0 0.9 0.00 0.00 0.00 89 1014.2
20260509035016 73 0 0.0 1.7 0.00 0.00 0.00 89 1014.2
20260509034541 73 0 0.0 1.7 0.00 0.00 0.00 89 1014.2
20260509034018 73 267 0.0 1.7 0.00 0.00 0.00 89 1014.2
20260509033520 74 0 0.0 0.0 0.00 0.00 0.00 89 1014.2
20260509033037 74 0 0.0 0.0 0.00 0.00 0.00 89 1014.2
20260509032519 74 0 0.0 0.9 0.00 0.00 0.00 89 1014.3
20260509032019 74 0 0.0 0.9 0.00 0.00 0.00 88 1014.1
20260509031549 74 342 0.0 0.9 0.00 0.00 0.00 88 1014.2
20260509031021 75 0 0.0 0.9 0.00 0.00 0.00 87 1014.2
20260509030523 75 0 0.0 0.0 0.00 0.00 0.00 87 1014.2
20260509030039 75 0 0.0 0.0 0.00 0.00 0.00 86 1014.2
20260509025519 76 0 0.0 0.0 0.00 0.00 0.00 86 1014.2
20260509025016 76 0 0.0 0.0 0.00 0.00 0.00 86 1014.1
20260509024540 76 0 0.0 0.0 0.00 0.00 0.00 86 1014.1
20260509024017 76 0 0.0 0.0 0.00 0.00 0.00 85 1014.3
20260509023516 76 0 0.0 0.0 0.00 0.00 0.00 85 1014.1
20260509023041 77 0 0.0 0.9 0.00 0.00 0.00 84 1014.1
20260509022523 77 0 0.0 2.6 0.00 0.00 0.00 84 1014.1
20260509022020 77 0 0.0 2.6 0.00 0.00 0.00 83 1014.1
20260509021537 77 284 0.9 2.6 0.00 0.00 0.00 83 1014.0
20260509021017 77 0 0.9 3.5 0.00 0.00 0.00 82 1014.0
20260509020521 77 279 0.9 3.5 0.00 0.00 0.00 82 1013.9
20260509020045 78 0 0.0 3.5 0.00 0.00 0.00 81 1013.7
20260509015516 78 0 0.0 3.5 0.00 0.00 0.00 81 1013.7
20260509015015 78 284 0.9 6.1 0.00 0.00 0.00 80 1013.7
20260509014535 78 291 0.9 6.1 0.00 0.00 0.00 79 1013.5
20260509014016 79 276 0.9 5.2 0.00 0.00 0.00 79 1013.5
20260509013516 79 279 0.9 6.1 0.00 0.00 0.00 78 1013.5
20260509013040 79 274 0.9 6.1 0.00 0.00 0.00 77 1013.5
20260509012521 79 276 2.6 6.1 0.00 0.00 0.00 77 1013.4
20260509012016 79 267 1.7 5.2 0.00 0.00 0.00 77 1013.3
20260509011546 79 294 1.7 5.2 0.00 0.00 0.00 77 1013.3
20260509011021 79 0 1.7 6.1 0.00 0.00 0.00 76 1013.3
20260509010518 80 250 2.6 6.1 0.00 0.00 0.00 76 1013.2
20260509010042 80 0 0.9 2.6 0.00 0.00 0.00 75 1013.2
20260509005517 80 276 0.0 7.0 0.00 0.00 0.00 75 1013.1
20260509005017 80 275 1.7 9.6 0.00 0.00 0.00 74 1013.1
20260509004547 80 266 2.6 9.6 0.00 0.00 0.00 73 1012.9
20260509004017 80 309 4.3 9.6 0.00 0.00 0.00 73 1012.9
20260509003516 80 281 3.5 7.8 0.00 0.00 0.00 72 1012.8
20260509003036 80 305 2.6 9.6 0.00 0.00 0.00 72 1012.8
20260509002516 81 288 4.3 9.6 0.00 0.00 0.00 71 1012.7
20260509002021 81 279 3.5 9.6 0.00 0.00 0.00 70 1012.5
20260509001541 81 273 5.2 9.6 0.00 0.00 0.00 70 1012.5
20260509001019 82 292 4.3 8.7 0.00 0.00 0.00 69 1012.4
20260509000519 82 252 5.2 8.7 0.00 0.00 0.00 68 1012.2
20260509000053 82 270 3.5 9.6 0.00 0.00 0.00 67 1012.1
20260508235517 83 280 5.2 10.4 0.00 0.00 0.00 66 1012.1
20260508235016 83 300 6.1 13.0 0.00 0.00 0.00 66 1011.8
20260508234538 83 284 7.8 13.0 0.00 0.00 0.00 65 1011.8
20260508234016 84 266 7.0 13.0 0.00 0.00 0.00 63 1011.6
20260508233516 84 266 8.7 13.0 0.00 0.00 0.00 62 1011.5
20260508233037 85 273 7.8 12.2 0.00 0.00 0.00 60 1011.4
20260508232516 85 298 7.8 13.0 0.00 0.00 0.00 60 1011.4
20260508232020 86 313 7.8 13.0 0.00 0.00 0.00 60 1011.3
20260508231534 86 268 6.1 10.4 0.00 0.00 0.00 60 1011.2
20260508231016 86 272 7.0 13.0 0.00 0.00 0.00 59 1011.0
20260508230521 86 273 7.0 14.8 0.00 0.00 0.00 59 1010.9
20260508230041 87 259 8.7 14.8 0.00 0.00 0.00 58 1010.8
20260508225520 88 263 9.6 13.9 0.00 0.00 0.00 57 1010.8
20260508225022 88 256 7.8 13.9 0.00 0.00 0.00 56 1010.7
20260508224541 89 267 9.6 13.9 0.00 0.00 0.00 53 1010.7
20260508224017 89 267 6.1 13.9 0.00 0.00 0.00 54 1010.6
20260508223516 89 291 8.7 13.9 0.00 0.00 0.00 53 1010.4
20260508223039 89 290 7.0 12.2 0.00 0.00 0.00 54 1010.4
20260508222517 90 250 6.1 13.9 0.00 0.00 0.00 53 1010.3
20260508222016 90 288 8.7 13.9 0.00 0.00 0.00 54 1010.4
20260508221539 90 273 6.1 11.3 0.00 0.00 0.00 53 1010.3
20260508221016 91 281 7.0 10.4 0.00 0.00 0.00 52 1010.2
20260508220516 91 259 4.3 10.4 0.00 0.00 0.00 52 1010.2
20260508220045 91 278 5.2 11.3 0.00 0.00 0.00 52 1010.1
20260508215520 91 301 6.1 11.3 0.00 0.00 0.00 51 1010.1
20260508215020 91 292 6.1 9.6 0.00 0.00 0.00 50 1010.0
20260508214532 91 283 5.2 8.7 0.00 0.00 0.00 51 1009.9
20260508214018 92 307 5.2 11.3 0.00 0.00 0.00 52 1010.0
20260508213519 91 243 6.1 11.3 0.00 0.00 0.00 51 1010.0
20260508213046 92 273 7.8 10.4 0.00 0.00 0.00 49 1009.9
20260508212519 93 174 2.6 11.3 0.00 0.00 0.00 47 1010.0
20260508212021 92 246 6.1 12.2 0.00 0.00 0.00 48 1010.0
20260508211536 93 266 5.2 12.2 0.00 0.00 0.00 48 1010.0
20260508211022 92 283 7.8 11.3 0.00 0.00 0.00 48 1009.9
20260508210520 93 252 4.3 13.0 0.00 0.00 0.00 48 1009.9
20260508210036 93 264 7.8 13.0 0.00 0.00 0.00 47 1010.2
20260508205519 93 263 2.6 10.4 0.00 0.00 0.00 45 1010.0
20260508205018 93 280 4.3 12.2 0.00 0.00 0.00 46 1010.1
20260508204537 93 255 8.7 12.2 0.00 0.00 0.00 46 1010.0
20260508204018 94 244 6.1 12.2 0.00 0.00 0.00 47 1010.1
20260508203519 94 272 6.1 12.2 0.00 0.00 0.00 46 1010.2
20260508203046 94 247 2.6 12.2 0.00 0.00 0.00 45 1010.4
20260508202521 94 252 7.0 11.3 0.00 0.00 0.00 45 1010.3
20260508202016 94 246 5.2 11.3 0.00 0.00 0.00 45 1010.4
20260508201541 92 295 1.7 7.0 0.00 0.00 0.00 47 1010.6
20260508201020 91 272 1.7 7.0 0.00 0.00 0.00 48 1010.6
20260508200520 93 288 4.3 10.4 0.00 0.00 0.00 45 1010.8
20260508200050 92 272 3.5 11.3 0.00 0.00 0.00 45 1011.0
20260508195519 94 273 7.0 13.0 0.00 0.00 0.00 44 1011.0
20260508195019 94 242 7.8 13.9 0.00 0.00 0.00 45 1011.0
20260508194540 93 284 3.5 13.9 0.00 0.00 0.00 45 1011.1
20260508194019 94 282 6.1 13.0 0.00 0.00 0.00 46 1011.1
20260508193519 93 278 1.7 10.4 0.00 0.00 0.00 45 1011.1
20260508193037 92 249 4.3 10.4 0.00 0.00 0.00 44 1011.2
20260508192519 94 293 4.3 10.4 0.00 0.00 0.00 42 1011.2
20260508192017 94 268 2.6 9.6 0.00 0.00 0.00 42 1011.5
20260508191536 93 269 2.6 10.4 0.00 0.00 0.00 45 1011.5
20260508191018 93 244 6.1 10.4 0.00 0.00 0.00 45 1011.6
20260508190518 93 0 5.2 9.6 0.00 0.00 0.00 46 1011.6
20260508190042 92 243 0.0 5.2 0.00 0.00 0.00 47 1011.7
20260508185518 93 234 0.9 10.4 0.00 0.00 0.00 46 1011.9
20260508185018 93 290 1.7 10.4 0.00 0.00 0.00 46 1012.0
20260508184535 93 341 5.2 10.4 0.00 0.00 0.00 48 1012.1
20260508184018 93 260 2.6 7.0 0.00 0.00 0.00 47 1012.2
20260508183517 93 252 1.7 8.7 0.00 0.00 0.00 46 1012.3
20260508183039 92 0 4.3 8.7 0.00 0.00 0.00 48 1012.4
20260508182518 91 259 3.5 8.7 0.00 0.00 0.00 50 1012.5
20260508182024 90 254 5.2 8.7 0.00 0.00 0.00 52 1012.7
20260508181604 91 0 0.0 7.8 0.00 0.00 0.00 50 1012.8
20260508181019 92 281 3.5 8.7 0.00 0.00 0.00 48 1012.8
20260508180518 93 296 0.0 12.2 0.00 0.00 0.00 50 1012.9
20260508180041 93 255 7.0 12.2 0.00 0.00 0.00 48 1012.9
20260508175517 92 273 3.5 10.4 0.00 0.00 0.00 50 1013.0
20260508175017 92 0 2.6 7.0 0.00 0.00 0.00 51 1013.0
20260508174538 89 282 3.5 7.8 0.00 0.00 0.00 55 1013.0
20260508174018 88 247 2.6 7.8 0.00 0.00 0.00 55 1013.1
20260508173518 89 0 1.7 6.1 0.00 0.00 0.00 55 1013.2